Time,TemperatureF,DewpointF,PressureIn,WindDirection,WindDirectionDegrees,WindSpeedMPH,WindSpeedGustMPH,Humidity,HourlyPrecipIn,Conditions,Clouds,dailyrainin,SoftwareType,DateUTC
2013-02-05 00:02:00,20.0,12.0,29.93,West,280,1.0,-999.0,72,-99.99,,,-99.99,,2013-02-05 05:02:00,
2013-02-05 00:11:00,20.0,12.0,29.93,West,280,1.0,-999.0,72,-99.99,,,-99.99,,2013-02-05 05:11:00,
2013-02-05 00:22:00,20.0,11.0,29.93,West,280,0.0,-999.0,67,-99.99,,,-99.99,,2013-02-05 05:22:00,
2013-02-05 00:32:00,21.0,12.0,29.93,West,279,0.0,-999.0,67,-99.99,,,-99.99,,2013-02-05 05:32:00,
2013-02-05 00:42:00,21.0,12.0,29.93,West,279,0.0,-999.0,67,-99.99,,,-99.99,,2013-02-05 05:42:00,
2013-02-05 00:52:00,21.0,12.0,29.93,West,279,0.0,-999.0,67,-99.99,,,-99.99,,2013-02-05 05:52:00,
2013-02-05 01:02:00,21.0,12.0,29.93,West,279,0.0,-999.0,67,-99.99,,,-99.99,,2013-02-05 06:02:00,
2013-02-05 01:11:00,21.0,12.0,29.93,West,279,0.0,-999.0,67,-99.99,,,-99.99,,2013-02-05 06:11:00,
2013-02-05 01:22:00,21.0,11.0,29.93,West,279,0.0,-999.0,64,-99.99,,,-99.99,,2013-02-05 06:22:00,
2013-02-05 01:32:00,21.0,10.0,29.94,West,279,0.0,-999.0,63,-99.99,,,-99.99,,2013-02-05 06:32:00,
2013-02-05 01:42:00,21.0,10.0,29.94,West,279,0.0,-999.0,63,-99.99,,,-99.99,,2013-02-05 06:42:00,
2013-02-05 01:52:00,21.0,10.0,29.94,West,279,0.0,-999.0,63,-99.99,,,-99.99,,2013-02-05 06:52:00,
2013-02-05 02:01:00,21.0,10.0,29.94,West,279,0.0,-999.0,63,-99.99,,,-99.99,,2013-02-05 07:01:00,
2013-02-05 02:11:00,21.0,10.0,29.94,West,279,0.0,-999.0,63,-99.99,,,-99.99,,2013-02-05 07:11:00,
2013-02-05 02:22:00,21.0,11.0,29.94,West,279,0.0,-999.0,64,-99.99,,,-99.99,,2013-02-05 07:22:00,
2013-02-05 02:32:00,22.0,11.0,29.94,West,279,0.0,-999.0,63,-99.99,,,-99.99,,2013-02-05 07:32:00,
2013-02-05 02:42:00,22.0,11.0,29.94,West,279,0.0,-999.0,63,-99.99,,,-99.99,,2013-02-05 07:42:00,
2013-02-05 02:52:00,22.0,12.0,29.93,West,279,0.0,-999.0,64,-99.99,,,-99.99,,2013-02-05 07:52:00,
2013-02-05 03:01:00,22.0,12.0,29.93,West,279,0.0,-999.0,64,-99.99,,,-99.99,,2013-02-05 08:01:00,
2013-02-05 03:11:00,22.0,12.0,29.93,West,279,0.0,-999.0,64,-99.99,,,-99.99,,2013-02-05 08:11:00,
2013-02-05 03:21:00,21.0,11.0,29.94,West,279,0.0,-999.0,64,-99.99,,,-99.99,,2013-02-05 08:21:00,
2013-02-05 03:31:00,21.0,11.0,29.94,West,279,0.0,-999.0,64,-99.99,,,-99.99,,2013-02-05 08:31:00,
2013-02-05 03:42:00,21.0,11.0,29.94,West,279,0.0,-999.0,64,-99.99,,,-99.99,,2013-02-05 08:42:00,
2013-02-05 03:52:00,21.0,11.0,29.94,West,279,0.0,-999.0,64,-99.99,,,-99.99,,2013-02-05 08:52:00,
2013-02-05 04:02:00,21.0,11.0,29.94,West,279,0.0,-999.0,64,-99.99,,,-99.99,,2013-02-05 09:02:00,
2013-02-05 04:12:00,21.0,11.0,29.93,West,279,0.0,-999.0,66,-99.99,,,-99.99,,2013-02-05 09:12:00,
2013-02-05 04:22:00,21.0,11.0,29.93,West,279,0.0,-999.0,66,-99.99,,,-99.99,,2013-02-05 09:22:00,
2013-02-05 04:32:00,21.0,11.0,29.93,West,279,0.0,-999.0,66,-99.99,,,-99.99,,2013-02-05 09:32:00,
2013-02-05 04:42:00,21.0,11.0,29.93,West,279,0.0,-999.0,66,-99.99,,,-99.99,,2013-02-05 09:42:00,
2013-02-05 04:52:00,21.0,12.0,29.93,West,279,0.0,-999.0,68,-99.99,,,-99.99,,2013-02-05 09:52:00,
2013-02-05 05:02:00,21.0,12.0,29.94,West,279,0.0,-999.0,69,-99.99,,,-99.99,,2013-02-05 10:02:00,
2013-02-05 05:11:00,21.0,12.0,29.94,West,279,0.0,-999.0,69,-99.99,,,-99.99,,2013-02-05 10:11:00,
2013-02-05 05:21:00,21.0,12.0,29.94,West,279,0.0,-999.0,69,-99.99,,,-99.99,,2013-02-05 10:21:00,
2013-02-05 05:32:00,21.0,12.0,29.94,West,279,0.0,-999.0,68,-99.99,,,-99.99,,2013-02-05 10:32:00,
2013-02-05 05:42:00,21.0,12.0,29.94,West,279,0.0,-999.0,68,-99.99,,,-99.99,,2013-02-05 10:42:00,
2013-02-05 05:52:00,21.0,12.0,29.94,West,279,0.0,-999.0,67,-99.99,,,-99.99,,2013-02-05 10:52:00,
2013-02-05 06:01:00,21.0,12.0,29.94,West,279,0.0,-999.0,68,-99.99,,,-99.99,,2013-02-05 11:01:00,
2013-02-05 06:11:00,21.0,12.0,29.94,West,279,0.0,-999.0,68,-99.99,,,-99.99,,2013-02-05 11:11:00,
2013-02-05 06:22:00,21.0,12.0,29.94,West,279,0.0,-999.0,69,-99.99,,,-99.99,,2013-02-05 11:22:00,
2013-02-05 06:32:00,21.0,12.0,29.94,West,279,0.0,-999.0,69,-99.99,,,-99.99,,2013-02-05 11:32:00,
2013-02-05 06:42:00,21.0,12.0,29.94,West,279,0.0,-999.0,69,-99.99,,,-99.99,,2013-02-05 11:42:00,
2013-02-05 06:52:00,21.0,13.0,29.95,West,279,0.0,-999.0,70,-99.99,,,-99.99,,2013-02-05 11:52:00,
2013-02-05 07:01:00,21.0,13.0,29.95,West,279,0.0,-999.0,70,-99.99,,,-99.99,,2013-02-05 12:01:00,
2013-02-05 07:12:00,21.0,13.0,29.95,West,279,0.0,-999.0,70,-99.99,,,-99.99,,2013-02-05 12:12:00,
2013-02-05 07:22:00,21.0,13.0,29.96,West,279,0.0,-999.0,70,-99.99,,,-99.99,,2013-02-05 12:22:00,
2013-02-05 07:32:00,21.0,13.0,29.96,West,279,0.0,-999.0,70,-99.99,,,-99.99,,2013-02-05 12:32:00,
2013-02-05 07:42:00,21.0,13.0,29.96,West,279,0.0,-999.0,70,-99.99,,,-99.99,,2013-02-05 12:42:00,
2013-02-05 07:52:00,21.0,13.0,29.98,West,279,0.0,-999.0,70,-99.99,,,-99.99,,2013-02-05 12:52:00,
2013-02-05 08:02:00,21.0,13.0,29.98,West,279,0.0,-999.0,70,-99.99,,,-99.99,,2013-02-05 13:02:00,
2013-02-05 08:12:00,21.0,13.0,29.98,West,279,0.0,-999.0,70,-99.99,,,-99.99,,2013-02-05 13:12:00,
2013-02-05 08:22:00,22.0,13.0,29.98,West,279,0.0,-999.0,69,-99.99,,,-99.99,,2013-02-05 13:22:00,
2013-02-05 08:32:00,22.0,13.0,29.99,West,279,0.0,-999.0,69,-99.99,,,-99.99,,2013-02-05 13:32:00,
2013-02-05 08:42:00,22.0,13.0,29.99,West,279,0.0,-999.0,69,-99.99,,,-99.99,,2013-02-05 13:42:00,
2013-02-05 08:52:00,22.0,13.0,29.99,West,279,0.0,-999.0,67,-99.99,,,-99.99,,2013-02-05 13:52:00,
2013-02-05 09:01:00,23.0,14.0,29.98,West,279,0.0,-999.0,67,-99.99,,,-99.99,,2013-02-05 14:01:00,
2013-02-05 09:12:00,23.0,14.0,29.98,West,279,0.0,-999.0,67,-99.99,,,-99.99,,2013-02-05 14:12:00,
2013-02-05 09:21:00,23.0,16.0,29.99,West,279,0.0,-999.0,73,-99.99,,,-99.99,,2013-02-05 14:21:00,
2013-02-05 09:32:00,23.0,14.0,29.99,West,279,0.0,-999.0,67,-99.99,,,-99.99,,2013-02-05 14:32:00,
2013-02-05 09:42:00,23.0,14.0,29.99,West,279,0.0,-999.0,67,-99.99,,,-99.99,,2013-02-05 14:42:00,
2013-02-05 09:52:00,24.0,15.0,29.99,West,279,0.0,-999.0,67,-99.99,,,-99.99,,2013-02-05 14:52:00,
2013-02-05 10:02:00,24.0,15.0,29.99,West,279,0.0,-999.0,68,-99.99,,,-99.99,,2013-02-05 15:02:00,
2013-02-05 10:11:00,24.0,15.0,29.99,West,279,0.0,-999.0,68,-99.99,,,-99.99,,2013-02-05 15:11:00,
2013-02-05 10:21:00,24.0,15.0,29.99,West,279,0.0,-999.0,68,-99.99,,,-99.99,,2013-02-05 15:21:00,
2013-02-05 10:32:00,24.0,15.0,30.00,West,280,0.0,-999.0,69,-99.99,,,-99.99,,2013-02-05 15:32:00,
2013-02-05 10:42:00,24.0,15.0,30.00,West,280,0.0,-999.0,69,-99.99,,,-99.99,,2013-02-05 15:42:00,
2013-02-05 10:52:00,24.0,15.0,30.00,West,280,0.0,-999.0,69,-99.99,,,-99.99,,2013-02-05 15:52:00,
2013-02-05 11:01:00,25.0,17.0,30.00,West,280,0.0,-999.0,70,-99.99,,,-99.99,,2013-02-05 16:01:00,
2013-02-05 11:11:00,25.0,17.0,30.00,West,280,0.0,-999.0,70,-99.99,,,-99.99,,2013-02-05 16:11:00,
2013-02-05 11:22:00,25.0,16.0,29.99,West,280,0.0,-999.0,69,-99.99,,,-99.99,,2013-02-05 16:22:00,
2013-02-05 11:32:00,25.0,16.0,29.99,West,280,0.0,-999.0,69,-99.99,,,-99.99,,2013-02-05 16:32:00,
2013-02-05 11:42:00,25.0,16.0,29.99,West,280,0.0,-999.0,69,-99.99,,,-99.99,,2013-02-05 16:42:00,
2013-02-05 11:52:00,26.0,17.0,29.98,West,275,0.0,-999.0,69,-99.99,,,-99.99,,2013-02-05 16:52:00,
2013-02-05 12:01:00,25.0,16.0,29.98,West,275,1.0,-999.0,69,-99.99,,,-99.99,,2013-02-05 17:01:00,
2013-02-05 12:12:00,25.0,16.0,29.98,West,275,1.0,-999.0,69,-99.99,,,-99.99,,2013-02-05 17:12:00,
2013-02-05 12:22:00,25.0,16.0,29.98,West,275,1.0,-999.0,69,-99.99,,,-99.99,,2013-02-05 17:22:00,
2013-02-05 12:32:00,26.0,18.0,29.97,West,275,0.0,-999.0,70,-99.99,,,-99.99,,2013-02-05 17:32:00,
2013-02-05 12:42:00,26.0,18.0,29.97,West,275,0.0,-999.0,70,-99.99,,,-99.99,,2013-02-05 17:42:00,
2013-02-05 12:52:00,26.0,18.0,29.97,West,275,0.0,-999.0,70,-99.99,,,-99.99,,2013-02-05 17:52:00,
2013-02-05 13:02:00,26.0,18.0,29.97,West,275,0.0,-999.0,70,-99.99,,,-99.99,,2013-02-05 18:02:00,
2013-02-05 13:11:00,26.0,18.0,29.97,West,275,0.0,-999.0,70,-99.99,,,-99.99,,2013-02-05 18:11:00,
2013-02-05 13:22:00,26.0,18.0,29.95,West,267,0.0,-999.0,71,-99.99,,,-99.99,,2013-02-05 18:22:00,
2013-02-05 13:32:00,26.0,18.0,29.95,West,265,1.0,-999.0,71,-99.99,,,-99.99,,2013-02-05 18:32:00,
2013-02-05 13:42:00,26.0,18.0,29.95,West,265,1.0,-999.0,71,-99.99,,,-99.99,,2013-02-05 18:42:00,
2013-02-05 13:52:00,26.0,18.0,29.95,South,171,1.0,-999.0,70,-99.99,,,-99.99,,2013-02-05 18:52:00,
2013-02-05 14:02:00,26.0,18.0,29.95,South,171,1.0,-999.0,70,-99.99,,,-99.99,,2013-02-05 19:02:00,
2013-02-05 14:11:00,26.0,18.0,29.95,South,171,1.0,-999.0,70,-99.99,,,-99.99,,2013-02-05 19:11:00,
2013-02-05 14:22:00,26.0,18.0,29.95,South,171,0.0,-999.0,71,-99.99,,,-99.99,,2013-02-05 19:22:00,
2013-02-05 14:32:00,26.0,18.0,29.95,South,171,0.0,-999.0,71,-99.99,,,-99.99,,2013-02-05 19:32:00,
2013-02-05 14:42:00,26.0,18.0,29.95,South,171,0.0,-999.0,71,-99.99,,,-99.99,,2013-02-05 19:42:00,
2013-02-05 14:52:00,26.0,19.0,29.94,South,171,0.0,-999.0,73,-99.99,,,-99.99,,2013-02-05 19:52:00,
2013-02-05 15:02:00,26.0,18.0,29.94,South,171,1.0,-999.0,72,-99.99,,,-99.99,,2013-02-05 20:02:00,
2013-02-05 15:11:00,26.0,18.0,29.94,South,171,1.0,-999.0,72,-99.99,,,-99.99,,2013-02-05 20:11:00,
2013-02-05 15:21:00,26.0,18.0,29.94,South,171,0.0,-999.0,72,-99.99,,,-99.99,,2013-02-05 20:21:00,
2013-02-05 15:32:00,26.0,18.0,29.94,South,171,0.0,-999.0,72,-99.99,,,-99.99,,2013-02-05 20:32:00,
2013-02-05 15:42:00,26.0,18.0,29.94,South,171,0.0,-999.0,72,-99.99,,,-99.99,,2013-02-05 20:42:00,
2013-02-05 15:52:00,26.0,18.0,29.93,South,171,0.0,-999.0,71,-99.99,,,-99.99,,2013-02-05 20:52:00,
2013-02-05 16:02:00,26.0,18.0,29.92,South,175,0.0,-999.0,71,-99.99,,,-99.99,,2013-02-05 21:02:00,
2013-02-05 16:11:00,26.0,18.0,29.92,South,175,0.0,-999.0,71,-99.99,,,-99.99,,2013-02-05 21:11:00,
2013-02-05 16:22:00,26.0,18.0,29.92,South,175,0.0,-999.0,71,-99.99,,,-99.99,,2013-02-05 21:22:00,
2013-02-05 16:32:00,26.0,18.0,29.92,South,175,0.0,-999.0,71,-99.99,,,-99.99,,2013-02-05 21:32:00,
2013-02-05 16:42:00,26.0,18.0,29.92,South,175,0.0,-999.0,71,-99.99,,,-99.99,,2013-02-05 21:42:00,
2013-02-05 16:52:00,26.0,19.0,29.93,South,175,0.0,-999.0,73,-99.99,,,-99.99,,2013-02-05 21:52:00,
2013-02-05 17:02:00,26.0,19.0,29.93,South,175,0.0,-999.0,73,-99.99,,,-99.99,,2013-02-05 22:02:00,
2013-02-05 17:12:00,26.0,19.0,29.93,South,175,0.0,-999.0,73,-99.99,,,-99.99,,2013-02-05 22:12:00,
2013-02-05 17:22:00,26.0,18.0,29.93,South,175,0.0,-999.0,72,-99.99,,,-99.99,,2013-02-05 22:22:00,
2013-02-05 17:32:00,26.0,18.0,29.93,South,175,0.0,-999.0,72,-99.99,,,-99.99,,2013-02-05 22:32:00,
2013-02-05 17:42:00,26.0,18.0,29.93,South,175,0.0,-999.0,72,-99.99,,,-99.99,,2013-02-05 22:42:00,
2013-02-05 17:52:00,26.0,18.0,29.93,South,175,0.0,-999.0,72,-99.99,,,-99.99,,2013-02-05 22:52:00,
2013-02-05 18:02:00,26.0,19.0,29.92,South,175,0.0,-999.0,73,-99.99,,,-99.99,,2013-02-05 23:02:00,
2013-02-05 18:11:00,26.0,19.0,29.92,South,175,0.0,-999.0,73,-99.99,,,-99.99,,2013-02-05 23:11:00,
2013-02-05 18:22:00,26.0,19.0,29.93,South,175,0.0,-999.0,73,-99.99,,,-99.99,,2013-02-05 23:22:00,
2013-02-05 18:32:00,26.0,19.0,29.93,South,175,0.0,-999.0,73,-99.99,,,-99.99,,2013-02-05 23:32:00,
2013-02-05 18:42:00,26.0,19.0,29.93,South,175,0.0,-999.0,73,-99.99,,,-99.99,,2013-02-05 23:42:00,
2013-02-05 18:53:00,26.0,19.0,29.93,South,175,0.0,-999.0,74,-99.99,,,-99.99,,2013-02-05 23:53:00,
2013-02-05 19:02:00,25.0,19.0,29.93,South,175,0.0,-999.0,77,-99.99,,,-99.99,,2013-02-06 00:02:00,
2013-02-05 19:12:00,25.0,19.0,29.93,South,175,0.0,-999.0,77,-99.99,,,-99.99,,2013-02-06 00:12:00,
2013-02-05 19:22:00,25.0,20.0,29.93,South,175,0.0,-999.0,80,-99.99,,,-99.99,,2013-02-06 00:22:00,
2013-02-05 19:32:00,25.0,20.0,29.93,South,175,0.0,-999.0,80,-99.99,,,-99.99,,2013-02-06 00:32:00,
2013-02-05 19:42:00,25.0,20.0,29.93,South,175,0.0,-999.0,80,-99.99,,,-99.99,,2013-02-06 00:42:00,
2013-02-05 19:52:00,24.0,19.0,29.93,South,175,0.0,-999.0,82,-99.99,,,-99.99,,2013-02-06 00:52:00,
2013-02-05 20:02:00,24.0,19.0,29.93,South,175,0.0,-999.0,82,-99.99,,,-99.99,,2013-02-06 01:02:00,
2013-02-05 20:12:00,24.0,19.0,29.93,South,175,0.0,-999.0,82,-99.99,,,-99.99,,2013-02-06 01:12:00,
2013-02-05 20:22:00,24.0,19.0,29.93,South,175,0.0,-999.0,82,-99.99,,,-99.99,,2013-02-06 01:22:00,
2013-02-05 20:32:00,24.0,19.0,29.93,South,175,0.0,-999.0,82,-99.99,,,-99.99,,2013-02-06 01:32:00,
2013-02-05 20:53:00,24.0,20.0,29.93,South,175,0.0,-999.0,84,-99.99,,,-99.99,,2013-02-06 01:53:00,
2013-02-05 21:02:00,24.0,20.0,29.93,South,175,0.0,-999.0,85,-99.99,,,-99.99,,2013-02-06 02:02:00,
2013-02-05 21:12:00,24.0,20.0,29.93,South,175,0.0,-999.0,85,-99.99,,,-99.99,,2013-02-06 02:12:00,
2013-02-05 21:22:00,24.0,20.0,29.93,South,175,0.0,-999.0,85,-99.99,,,-99.99,,2013-02-06 02:22:00,
2013-02-05 21:32:00,24.0,20.0,29.93,South,175,0.0,-999.0,86,-99.99,,,-99.99,,2013-02-06 02:32:00,
2013-02-05 21:42:00,24.0,20.0,29.93,South,175,0.0,-999.0,86,-99.99,,,-99.99,,2013-02-06 02:42:00,
2013-02-05 21:53:00,24.0,20.0,29.93,South,175,0.0,-999.0,86,-99.99,,,-99.99,,2013-02-06 02:53:00,
2013-02-05 22:03:00,24.0,20.0,29.93,South,175,0.0,-999.0,86,-99.99,,,-99.99,,2013-02-06 03:03:00,
2013-02-05 22:12:00,24.0,20.0,29.93,South,175,0.0,-999.0,86,-99.99,,,-99.99,,2013-02-06 03:12:00,
2013-02-05 22:22:00,24.0,20.0,29.93,South,175,0.0,-999.0,86,-99.99,,,-99.99,,2013-02-06 03:22:00,
2013-02-05 22:32:00,24.0,20.0,29.93,South,175,0.0,-999.0,86,-99.99,,,-99.99,,2013-02-06 03:32:00,
2013-02-05 22:53:00,24.0,21.0,29.92,South,175,0.0,-999.0,87,-99.99,,,-99.99,,2013-02-06 03:53:00,
2013-02-05 23:02:00,24.0,21.0,29.91,South,175,0.0,-999.0,87,-99.99,,,-99.99,,2013-02-06 04:02:00,
2013-02-05 23:11:00,24.0,21.0,29.91,South,175,0.0,-999.0,87,-99.99,,,-99.99,,2013-02-06 04:11:00,
2013-02-05 23:22:00,24.0,21.0,29.91,South,175,0.0,-999.0,87,-99.99,,,-99.99,,2013-02-06 04:22:00,
2013-02-05 23:32:00,24.0,21.0,29.91,South,175,0.0,-999.0,87,-99.99,,,-99.99,,2013-02-06 04:32:00,
2013-02-05 23:42:00,24.0,21.0,29.91,South,175,0.0,-999.0,87,-99.99,,,-99.99,,2013-02-06 04:42:00,
2013-02-05 23:52:00,24.0,21.0,29.91,South,175,0.0,-999.0,87,-99.99,,,-99.99,,2013-02-06 04:52:00,